Location: *
(44.3683°N, 6.6958°E)
Time: 14:26:31
(UTC+00:00)

Lacrosse 5 - Pass Details

Date: 14 October 2019
Orbit: 715 x 724 km, 57.0° (Epoch: 12 November)

Event Time Altitude Azimuth Distance (km) Brightness Sun altitude
Rises 19:20:58 0° 312° (NW) 3,124 6.1 -27.3°
Reaches altitude 10° 19:23:29 10° 320° (NW) 2,201 5.1 -27.7°
Enters shadow 19:27:10 36° 359° (N) 1,127 2.9 -28.4°
